CDT,Max TemperatureF,Mean TemperatureF,Min TemperatureF,Max Dew PointF,MeanDew PointF,Min DewpointF,Max Humidity, Mean Humidity, Min Humidity, Max Sea Level PressureIn, Mean Sea Level PressureIn, Min Sea Level PressureIn, Max VisibilityMiles, Mean VisibilityMiles, Min VisibilityMiles, Max Wind SpeedMPH, Mean Wind SpeedMPH, Max Gust SpeedMPH,PrecipitationIn, CloudCover, Events, WindDirDegrees
2013-4-1,47,39,30,30,20,14,70,50,30,30.26,30.16,29.99,10,10,10,21,12,26,0.00,2,,322
2013-4-2,49,37,24,20,16,12,74,49,23,30.37,30.31,30.27,10,10,10,17,7,22,0.00,0,,330
2013-4-3,52,39,25,21,19,17,69,48,26,30.45,30.37,30.30,10,10,10,17,8,22,0.00,0,,66
2013-4-4,60,44,28,24,21,17,78,50,21,30.29,30.15,30.04,10,10,10,12,4,13,0.00,0,,75
2013-4-5,63,50,37,33,27,22,85,54,23,30.19,30.11,30.04,10,10,10,18,8,22,0.00,0,,34
2013-4-6,71,59,46,45,35,23,58,43,28,30.06,29.86,29.69,10,10,10,33,19,43,0.01,1,Rain,168
2013-4-7,75,59,42,55,43,40,96,64,31,29.94,29.87,29.79,10,10,10,24,6,30,T,0,Rain,151
2013-4-8,75,67,58,59,57,54,84,71,57,29.88,29.78,29.69,10,10,9,22,12,30,0.17,5,Rain-Thunderstorm,194
2013-4-9,77,70,62,61,58,56,84,69,54,29.87,29.83,29.81,10,10,10,28,14,37,0.00,6,Thunderstorm,179
2013-4-10,69,58,46,64,51,45,100,89,78,29.89,29.79,29.64,10,6,1,25,14,35,1.36,7,Rain-Thunderstorm,42
2013-4-11,51,45,38,50,43,32,100,88,76,29.72,29.66,29.61,10,8,2,24,13,30,0.07,8,Rain,252
2013-4-12,43,40,37,36,33,31,82,76,70,29.98,29.80,29.69,10,10,10,26,15,32,0.00,8,,249
2013-4-13,56,46,36,38,33,28,92,68,43,30.06,30.00,29.95,10,10,10,23,10,28,T,4,,257
2013-4-14,77,62,47,52,45,40,71,54,36,29.96,29.77,29.62,10,10,10,31,19,40,0.02,2,Rain-Thunderstorm,157
2013-4-15,63,55,46,59,53,45,97,79,60,29.97,29.85,29.73,10,9,3,26,11,36,0.55,8,Rain-Thunderstorm,207
2013-4-16,51,47,43,45,43,41,100,87,74,30.19,30.08,29.90,10,7,2,17,10,22,0.59,8,Rain-Thunderstorm,19
2013-4-17,74,60,45,68,50,39,100,86,71,30.12,29.93,29.70,10,7,2,25,13,33,0.01,8,Rain,84
2013-4-18,71,55,39,65,54,32,100,88,76,29.72,29.62,29.54,10,8,2,41,19,45,1.58,7,Rain-Thunderstorm,219
2013-4-19,45,40,35,32,30,26,76,67,57,30.07,29.84,29.69,10,10,10,29,19,38,T,7,,272
2013-4-20,51,41,30,31,28,25,92,66,39,30.39,30.27,30.08,10,10,10,10,6,14,0.00,2,,261
2013-4-21,59,49,39,41,35,28,71,61,51,30.46,30.38,30.30,10,10,10,22,13,28,0.00,1,,127
2013-4-22,68,54,39,47,40,34,82,61,40,30.30,30.16,30.02,10,10,10,22,9,28,T,0,Rain,148
2013-4-23,59,49,39,54,44,37,96,82,67,30.03,29.96,29.92,10,8,2,20,10,25,0.35,8,Rain,331
2013-4-24,51,44,36,37,34,31,92,71,50,30.23,30.11,29.98,10,9,4,18,11,24,0.06,6,Rain,298
2013-4-25,59,49,38,36,31,27,79,56,33,30.35,30.29,30.19,10,10,10,23,10,29,0.00,0,,259
2013-4-26,63,53,43,46,41,34,77,66,54,30.36,30.32,30.28,10,10,10,22,12,25,0.00,3,,176
2013-4-27,56,50,44,52,49,44,100,83,66,30.30,30.12,29.95,10,7,2,16,7,20,0.25,7,Rain,94
2013-4-28,64,57,50,55,52,48,100,86,72,29.94,29.91,29.88,10,6,1,13,8,17,0.05,7,Rain,313
2013-4-29,76,61,45,60,54,44,100,79,57,29.94,29.86,29.77,10,9,4,26,14,33,0.00,0,,173
2013-4-30,84,72,60,59,57,49,90,61,31,29.95,29.85,29.77,10,10,10,25,14,35,0.00,0,,183